Disclaimer

Please do not use the information listed here in-flight or in-navigation, as they are not provided to us by the airports but are provided by volunteers, so they might be outdated.

Search


Regions


Airport information page

Radio informations:
Tower (TWR) - 118.5 MHz
Approach (APP) - 118.5 MHz

Airport informations:
Latitude: 19° 53' 52.49" N
Longitude: 102° 09' 38.75" E
Elevation: 955 feet - 291 meters
Operating hours: Remarks
Operating agency: Civil government, landing fees and diplomatic clearance may be required
Timezone: UTC+7
Fuel: Aviation Gasoline (AVGAS), octane unknown.

Jet fuel avaiable but type is unknown.

Runway information:
06/24 - 7218 x 148 feet< - >2200 x 45 meters

Recent METARs:
VLLB 170900Z 04008KT 9999 FEW027 FEW060 26/18 Q1015 NOSIG
VLLB 170900Z 04008KT 9999 FEW027 FEW060 26/18 Q1015 NOSIG
VLLB 170900Z 04008KT 9999 FEW027 FEW060 26/18 Q1015 NOSIG

Airport on the map: